ASTRA 1N

Last updated on Sun Jun 21 2026 00:03:05 GMT+0000 (Coordinated Universal Time)

1 37775U 11041A 26171.32452803 .00000115 00000+0 00000+0 0 9995 2 37775 0.0722 28.0340 0006413 74.1092 302.4267 1.00272264 44552
UTC large
Height (km)
Speed (km/s)
/
Latitude / Longitude
Inclination (degrees)
Orbital Period (minutes)
Azimuth
Elevation
Range (km)
Doppler Factor

Next 0 passes for location: London (51.5072 / 0.1276)

No passes found over London.
ASTRA 1N